When you browse on this site, cookies collect data to enhance your experience and personalize the content and advertising you see.
Visit our Privacy Policy to learn more. By continuing to use the site, you agree to this use of cookies and data.

Stündliche Wetter Tymchenky

Heute, 2 Juli, Donnerstag

Zeit Temperatur Niederschläge Wind Luftdruck Luftfeuchtigkeit
00:00 +20°C° 0 mm 1 m/S 750 mmHg 71%
01:00 +20°C° 0 mm 1 m/S 750 mmHg 72%
02:00 +20°C° 0 mm 1 m/S 749 mmHg 75%
03:00 +20°C° 0 mm 1 m/S 749 mmHg 76%
04:00 +20°C° 0 mm 1 m/S 750 mmHg 77%
05:00 +21°C° 0 mm 1 m/S 750 mmHg 79%
06:00 +22°C° 0 mm 1 m/S 750 mmHg 74%
07:00 +24°C° 0 mm 1 m/S 750 mmHg 69%
08:00 +26°C° 0 mm 1 m/S 750 mmHg 64%
09:00 +27°C° 0 mm 1 m/S 750 mmHg 61%
10:00 +27°C° 0 mm 2 m/S 750 mmHg 58%
11:00 +28°C° 0 mm 2 m/S 750 mmHg 54%
12:00 +29°C° 0 mm 2 m/S 750 mmHg 54%
13:00 +29°C° 0 mm 2 m/S 750 mmHg 53%
14:00 +29°C° 0 mm 2 m/S 750 mmHg 52%
15:00 +29°C° 0 mm 2 m/S 749 mmHg 53%
16:00 +29°C° 0 mm 2 m/S 749 mmHg 53%
17:00 +29°C° 0 mm 2 m/S 749 mmHg 54%
18:00 +28°C° 0 mm 2 m/S 749 mmHg 58%
19:00 +26°C° 0 mm 2 m/S 749 mmHg 61%
20:00 +24°C° 0 mm 2 m/S 750 mmHg 65%
21:00 +24°C° 0 mm 2 m/S 749 mmHg 65%
22:00 +23°C° 0 mm 2 m/S 749 mmHg 66%
23:00 +23°C° 0 mm 2 m/S 749 mmHg 66%

Morgen, 3 Juli, Freitag

Zeit Temperatur Niederschläge Wind Luftdruck Luftfeuchtigkeit
00:00 +21°C° 0 mm 2 m/S 749 mmHg 69%
01:00 +21°C° 0 mm 2 m/S 749 mmHg 72%
02:00 +20°C° 0 mm 2 m/S 750 mmHg 75%
03:00 +20°C° 0 mm 2 m/S 749 mmHg 76%
04:00 +20°C° 0 mm 2 m/S 749 mmHg 77%
05:00 +20°C° 0 mm 2 m/S 749 mmHg 78%
06:00 +23°C° 0 mm 2 m/S 749 mmHg 73%
07:00 +25°C° 0 mm 2 m/S 749 mmHg 68%
08:00 +27°C° 0 mm 2 m/S 750 mmHg 63%
09:00 +28°C° 0 mm 3 m/S 750 mmHg 59%
10:00 +29°C° 0 mm 3 m/S 750 mmHg 56%
11:00 +30°C° 0 mm 3 m/S 750 mmHg 53%
12:00 +30°C° 0 mm 3 m/S 749 mmHg 51%
13:00 +30°C° 0 mm 3 m/S 749 mmHg 50%
14:00 +31°C° 0 mm 3 m/S 748 mmHg 48%
15:00 +31°C° 0 mm 3 m/S 748 mmHg 50%
16:00 +30°C° 0 mm 3 m/S 748 mmHg 51%
17:00 +30°C° 0 mm 3 m/S 748 mmHg 53%
18:00 +28°C° 0 mm 2 m/S 748 mmHg 56%
19:00 +27°C° 0 mm 2 m/S 748 mmHg 59%
20:00 +25°C° 0 mm 2 m/S 748 mmHg 63%
21:00 +25°C° 0 mm 2 m/S 748 mmHg 65%
22:00 +24°C° 0 mm 2 m/S 748 mmHg 67%
23:00 +24°C° 0 mm 2 m/S 749 mmHg 69%

übermorgen, 4 Juli, Samstag

Zeit Temperatur Niederschläge Wind Luftdruck Luftfeuchtigkeit
00:00 +23°C° 0 mm 2 m/S 748 mmHg 71%
01:00 +23°C° 0 mm 2 m/S 748 mmHg 73%
02:00 +23°C° 0 mm 2 m/S 748 mmHg 76%
03:00 +23°C° 0 mm 2 m/S 748 mmHg 77%
04:00 +23°C° 0 mm 2 m/S 748 mmHg 79%
05:00 +23°C° 0 mm 2 m/S 748 mmHg 80%
06:00 +25°C° 0 mm 2 m/S 748 mmHg 74%
07:00 +26°C° 0 mm 1 m/S 748 mmHg 67%
08:00 +28°C° 0 mm 1 m/S 749 mmHg 61%
09:00 +29°C° 0 mm 1 m/S 749 mmHg 57%
10:00 +30°C° 0 mm 1 m/S 749 mmHg 52%
11:00 +31°C° 0 mm 1 m/S 749 mmHg 48%
12:00 +32°C° 0 mm 2 m/S 748 mmHg 47%
13:00 +32°C° 0 mm 2 m/S 748 mmHg 46%
14:00 +32°C° 0 mm 2 m/S 748 mmHg 45%
15:00 +32°C° 0 mm 2 m/S 748 mmHg 49%
16:00 +31°C° 0 mm 2 m/S 748 mmHg 54%
17:00 +30°C° 0 mm 3 m/S 748 mmHg 58%
18:00 +28°C° 0 mm 3 m/S 748 mmHg 66%
19:00 +26°C° 0 mm 3 m/S 748 mmHg 74%
20:00 +25°C° 0 mm 3 m/S 748 mmHg 82%
21:00 +24°C° 0 mm 3 m/S 748 mmHg 84%
22:00 +22°C° 0 mm 3 m/S 748 mmHg 86%
23:00 +22°C° 0 mm 3 m/S 749 mmHg 88%

5 Juli, Sonntag

Zeit Temperatur Niederschläge Wind Luftdruck Luftfeuchtigkeit
00:00 +21°C° 0 mm 3 m/S 748 mmHg 90%
01:00 +21°C° 0 mm 3 m/S 748 mmHg 91%
02:00 +20°C° 0 mm 3 m/S 748 mmHg 93%
03:00 +20°C° 0 mm 3 m/S 748 mmHg 93%
04:00 +21°C° 0 mm 3 m/S 748 mmHg 93%
05:00 +21°C° 0 mm 3 m/S 748 mmHg 92%
06:00 +22°C° 0 mm 3 m/S 748 mmHg 87%
07:00 +24°C° 0 mm 3 m/S 748 mmHg 81%
08:00 +26°C° 0 mm 3 m/S 748 mmHg 75%
09:00 +27°C° 0 mm 3 m/S 748 mmHg 70%
10:00 +28°C° 0 mm 3 m/S 748 mmHg 65%
11:00 +29°C° 0 mm 2 m/S 748 mmHg 60%
12:00 +30°C° 0 mm 2 m/S 748 mmHg 58%
13:00 +30°C° 0 mm 3 m/S 748 mmHg 56%
14:00 +31°C° 0 mm 3 m/S 747 mmHg 55%
15:00 +31°C° 0.1 mm 3 m/S 747 mmHg 57%
16:00 +30°C° 0.1 mm 3 m/S 747 mmHg 60%
17:00 +30°C° 0.1 mm 3 m/S 747 mmHg 62%
18:00 +28°C° 0.8 mm 3 m/S 747 mmHg 70%
19:00 +26°C° 0.8 mm 4 m/S 748 mmHg 78%
20:00 +25°C° 0.8 mm 4 m/S 748 mmHg 85%
21:00 +23°C° 0 mm 4 m/S 748 mmHg 88%
22:00 +22°C° 0 mm 3 m/S 748 mmHg 90%
23:00 +22°C° 0 mm 3 m/S 748 mmHg 93%

6 Juli, Montag

Zeit Temperatur Niederschläge Wind Luftdruck Luftfeuchtigkeit
00:00 +21°C° 0 mm 3 m/S 748 mmHg 93%
01:00 +21°C° 0 mm 3 m/S 748 mmHg 94%
02:00 +21°C° 0 mm 3 m/S 748 mmHg 95%
03:00 +20°C° 0 mm 3 m/S 748 mmHg 94%
04:00 +20°C° 0 mm 3 m/S 748 mmHg 93%
05:00 +20°C° 0 mm 3 m/S 748 mmHg 93%
06:00 +22°C° 0 mm 3 m/S 748 mmHg 87%
07:00 +24°C° 0 mm 3 m/S 748 mmHg 82%
08:00 +26°C° 0 mm 3 m/S 748 mmHg 76%
09:00 +27°C° 0 mm 3 m/S 748 mmHg 70%
10:00 +28°C° 0 mm 3 m/S 748 mmHg 63%
11:00 +29°C° 0 mm 3 m/S 749 mmHg 57%
12:00 +29°C° 0 mm 3 m/S 748 mmHg 54%
13:00 +30°C° 0 mm 3 m/S 748 mmHg 52%
14:00 +30°C° 0 mm 3 m/S 748 mmHg 49%
15:00 +30°C° 0 mm 3 m/S 748 mmHg 50%
16:00 +30°C° 0 mm 3 m/S 748 mmHg 51%
17:00 +30°C° 0 mm 3 m/S 747 mmHg 53%
18:00 +28°C° 0 mm 3 m/S 747 mmHg 58%
19:00 +26°C° 0 mm 3 m/S 747 mmHg 64%
20:00 +25°C° 0 mm 3 m/S 748 mmHg 69%
21:00 +24°C° 0 mm 3 m/S 747 mmHg 70%
22:00 +22°C° 0 mm 3 m/S 747 mmHg 70%
23:00 +21°C° 0 mm 3 m/S 747 mmHg 71%

7 Juli, Dienstag

Zeit Temperatur Niederschläge Wind Luftdruck Luftfeuchtigkeit
00:00 +21°C° 0 mm 3 m/S 747 mmHg 72%
01:00 +21°C° 0 mm 2 m/S 747 mmHg 72%
02:00 +20°C° 0 mm 2 m/S 747 mmHg 73%
03:00 +20°C° 0 mm 2 m/S 747 mmHg 74%
04:00 +20°C° 0 mm 3 m/S 747 mmHg 76%
05:00 +20°C° 0 mm 3 m/S 747 mmHg 77%
06:00 +21°C° 0.3 mm 3 m/S 747 mmHg 74%
07:00 +24°C° 0.3 mm 3 m/S 747 mmHg 70%
08:00 +26°C° 0.3 mm 3 m/S 746 mmHg 66%
09:00 +27°C° 0.3 mm 3 m/S 746 mmHg 64%
10:00 +28°C° 0.3 mm 2 m/S 746 mmHg 61%
11:00 +30°C° 0.3 mm 2 m/S 746 mmHg 59%
12:00 +30°C° 0 mm 2 m/S 745 mmHg 57%
13:00 +31°C° 0 mm 2 m/S 745 mmHg 54%
14:00 +32°C° 0 mm 2 m/S 745 mmHg 52%
15:00 +33°C° 0 mm 3 m/S 744 mmHg 54%
16:00 +33°C° 0 mm 3 m/S 744 mmHg 56%
17:00 +32°C° 0 mm 4 m/S 744 mmHg 58%
18:00 +30°C° 0.3 mm 4 m/S 744 mmHg 66%
19:00 +28°C° 0.3 mm 4 m/S 744 mmHg 73%
20:00 +26°C° 0.3 mm 5 m/S 744 mmHg 81%
21:00 +25°C° 1.7 mm 4 m/S 744 mmHg 84%
22:00 +23°C° 1.7 mm 4 m/S 743 mmHg 87%
23:00 +22°C° 1.7 mm 4 m/S 743 mmHg 89%
Mehr zeigen